Terug naar catalogus

CZ-6A DEB

ActiefPO
NORAD 54308·DEBRIS·🇨🇳 China

Gelanceerd Nov 11, 2022 vanaf Taiyuan Satellite Launch Center

Loading…

Volgende Passages (komende 24 uur)

TLE

VersSource: Space-Track

Epoch: Sep 14, 2026, 11:38 UTC

1 54308U 22151BB  26257.48483865  .00089814  00000-0  40819-2 0  9993
2 54308  98.6288 352.9837 0024980 291.4664  68.3903 15.20092355204417

Volg CZ-6A DEB in realtime met AllMySat

Download on the App Store